Location: Haliburton Scout Reserve
(45.0900°N, 78.3200°W)
Time: 04:33:47
(UTC-04:00)

PCSat - Pass Details

Date: 30 May 2022
Orbit: 784 x 795 km, 67.1° (Epoch: 24 June)

Event Time Altitude Azimuth Distance (km) Brightness Sun altitude
Rises 03:08:34 0° 317° (NW) 3,303 13.0 -17.9°
Reaches altitude 10° 03:11:22 10° 305° (NW) 2,369 12.1 -17.7°
Maximum altitude 03:15:42 25° 252° (WSW) 1,565 10.7 -17.3°
Enters shadow 03:16:15 24° 242° (WSW) 1,581 10.6 -17.3°
